Location: Newark
(49.8969°N, 3.3422°E)
Time: 20:02:20
(UTC+00:00)

Explorer 7 - Visible Passes

Search period start: 29 January 2020 00:00
Search period end: 08 February 2020 00:00
Orbit: 485 x 679 km, 50.3° (Epoch: 29 January)

Date Brightness Start Highest point End Pass type
(mag) Time Alt. Az. Time Alt. Az. Time Alt. Az.
02 Feb 8.9 18:18:05 10° SSE 18:19:32 12° SE 18:19:32 12° SE visible
02 Feb 9.7 19:55:52 10° SW 19:55:53 10° SW 19:55:53 10° SW visible
03 Feb 8.3 18:21:39 10° S 18:24:28 19° SE 18:24:40 19° SE visible
03 Feb 9.6 20:00:37 10° WSW 20:01:00 12° WSW 20:01:00 12° WSW visible
04 Feb 7.8 18:25:49 10° SSW 18:29:12 27° SSE 18:29:43 26° SE visible
04 Feb 9.6 20:05:28 10° WSW 20:06:03 14° WSW 20:06:03 14° WSW visible
05 Feb 7.4 18:30:16 10° SW 18:34:00 38° SSE 18:34:42 34° SE visible
05 Feb 9.6 20:10:22 10° W 20:11:02 14° W 20:11:02 14° W visible
06 Feb 7.0 18:34:55 10° SW 18:38:50 51° SSE 18:39:38 43° ESE visible
06 Feb 9.7 20:15:19 10° W 20:15:58 14° W 20:15:58 14° W visible
07 Feb 6.7 18:39:42 10° WSW 18:43:42 67° SSE 18:44:31 50° ESE visible
07 Feb 9.7 20:20:17 10° W 20:20:51 14° W 20:20:51 14° W visible
